Temperature
16 15 15 15 15 15 16 16 16 16 16 16 16 16 16 16 16 16 16 15 15 15 15 15 15 15 15 15 15 15 15 15 15 15 15 15 15 15 15 15 15 15 15
16 15 15 15 15 15 15 15 16 16 16 16 16 16 16 16 16 15 15 15 15 15 15 15 15 15 15 15 15 15 15 15 15 15 15 15 15 15 15 14 14 14 14
15 15 15 15 15 15 15 15 15 15 15 15 16 16 16 15 15 15 15 15 15 15 15 15 15 15 15 15 15 15 15 15 15 15 14 14 14 14 14 14 14 14 14
15 15 15 15 15 15 15 15 15 15 15 15 15 15 15 15 15 15 15 15 15 15 15 15 15 15 15 15 15 15 15 15 15 14 14 14 14 14 14 14 14 14 14
15 15 15 15 15 15 15 15 15 15 15 15 15 15 15 15 15 15 15 15 15 15 15 15 15 15 15 15 15 15 15 15 14 14 14 14 14 14 14 14 14 14 14
15 15 14 14 14 14 15 15 15 15 15 15 15 15 15 15 15 15 14 14 14 14 14 15 15 15 14 14 15 15 14 14 14 14 14 14 14 14 14 14 14 14 14
14 14 14 14 14 14 14 14 14 14 14 14 14 14 14 14 14 14 14 14 14 14 14 14 14 14 14 14 14 14 14 14 14 14 14 13 13 14 14 13 13 13 13
14 14 14 14 14 14 14 14 14 14 14 14 14 14 14 14 14 14 14 14 14 14 14 14 14 14 14 14 14 14 14 14 13 13 13 13 13 13 13 13 13 13 13
13 13 13 13 13 13 13 13 13 14 14 14 14 14 14 14 14 14 14 14 14 14 14 14 14 14 14 14 14 14 13 13 13 13 13 13 13 13 13 13 13 13 12
13 13 13 13 13 13 13 13 13 13 13 13 13 14 14 14 13 14 14 14 13 14 14 14 14 13 13 13 13 13 13 13 13 13 13 13 13 12 12 13 12 12 12
12 13 13 13 13 13 13 13 13 13 13 13 13 13 13 13 13 13 13 13 13 13 13 13 13 13 13 13 13 13 13 13 13 13 12 12 12 12 12 12 12 12 12
12 12 12 12 12 12 12 12 12 12 12 12 13 13 13 13 13 13 13 13 13 13 13 13 13 13 13 13 13 13 13 13 12 12 12 12 12 12 12 12 12 11 11
12 12 12 12 12 12 12 12 12 12 12 12 12 12 12 12 12 12 12 12 12 12 12 13 12 12 12 12 12 12 12 12 12 12 12 12 12 11 11 11 11 11 11
12 12 12 12 11 11 11 12 12 12 12 12 12 12 12 12 12 12 12 12 12 12 12 12 12 12 12 12 12 12 12 12 12 12 12 11 11 11 11 11 11 11 11
11 11 11 11 11 11 11 11 11 11 11 11 11 11 11 12 12 11 11 11 11 11 11 11 12 12 12 12 11 11 11 11 11 11 11 11 11 11 11 11 10 10 10
11 11 11 11 11 11 11 11 11 11 11 11 11 11 11 11 11 11 11 11 11 11 11 11 11 11 11 11 11 11 11 11 11 11 11 11 10 10 10 10 10 10 10
11 11 11 11 11 11 11 10 10 11 11 11 11 11 11 11 11 11 11 11 11 11 11 10 10 11 11 11 11 10 10 10 10 10 10 10 10 10 10 10 10 10 9
11 11 10 10 10 10 10 10 10 10 10 10 10 10 10 10 10 10 10 10 10 10 10 10 10 10 10 10 10 10 10 10 10 10 10 10 10 10 10 9 9 9 9
11 10 10 10 10 10 10 10 10 10 10 10 10 10 10 10 10 10 10 10 10 10 10 10 10 10 10 10 10 10 10 10 9 9 9 9 9 9 9 9 9 9 9
10 10 10 10 9 9 9 9 9 9 9 9 10 10 9 9 9 9 9 9 9 9 9 9 9 9 9 9 9 9 9 9 9 9 9 9 9 9 9 9 9 8 8
10 10 10 9 9 9 9 9 9 9 9 9 9 9 9 9 9 9 9 9 9 9 9 9 9 9 9 9 9 8 8 8 8 8 8 8 9 8 8 8 8 8 8
10 9 9 9 9 9 9 9 9 9 9 9 9 9 9 9 8 8 8 8 8 8 8 8 8 8 8 8 8 8 7 7 8 8 8 8 8 8 8 8 8 8 7
9 9 9 9 9 9 8 8 8 8 8 8 8 8 8 8 8 8 8 8 8 8 8 8 8 8 8 8 8 8 7 7 7 7 7 7 7 7 7 7 7 7 7
9 9 9 9 9 8 8 8 8 8 8 8 8 8 8 8 8 8 8 7 7 7 8 7 7 7 8 8 7 7 7 7 7 6 6 6 6 7 7 6 6 6 6
9 9 9 8 8 8 8 8 8 7 7 8 7 7 8 7 7 7 7 7 7 7 7 7 7 7 7 7 7 7 7 7 7 6 6 6 6 6 6 6 6 6 6
8 8 8 8 8 8 7 7 7 7 7 7 7 7 7 7 7 7 7 7 7 7 7 7 7 7 7 7 7 7 6 6 6 6 6 6 5 6 5 5 5 5 5
Wind_Speed
2 3 7 9 9 9 9 9 10 10 10 11 11 11 11 11 11 11 11 10 10 10 10 11 11 11 12 12 12 12 12 12 12 12 12 12 12 12 13 13 13 12 13
3 5 8 10 10 9 9 9 9 10 10 10 10 10 11 10 10 10 10 10 10 9 10 10 10 11 11 12 12 12 12 12 12 12 12 11 11 12 12 12 11 11 12
4 6 8 10 10 9 9 9 9 9 10 10 10 10 10 10 10 10 9 9 9 9 9 9 10 10 10 11 11 11 12 12 11 11 10 9 9 11 11 11 11 11 11
5 6 8 10 10 9 9 9 9 9 9 9 9 9 9 9 9 9 8 8 8 7 7 8 9 10 10 10 11 11 11 11 11 10 9 8 8 10 11 11 11 11 11
5 6 8 10 10 10 9 9 9 9 9 9 9 9 8 9 9 8 8 8 7 7 8 8 9 9 9 10 11 11 11 11 10 10 8 8 7 9 10 11 11 11 12
4 6 8 10 10 10 9 9 9 9 9 8 8 8 8 8 8 8 8 8 8 8 8 8 8 8 9 9 10 10 10 10 10 10 8 8 7 9 9 10 10 10 11
3 4 7 10 10 10 9 9 9 8 8 8 8 8 7 7 7 8 8 7 7 8 8 8 8 8 8 9 10 10 10 10 11 9 8 7 7 9 9 9 10 10 10
3 3 5 8 9 9 9 8 8 8 8 8 7 7 7 6 7 7 7 7 7 7 8 8 8 8 8 9 9 10 10 10 9 8 7 6 8 9 9 10 10 10 11
4 4 4 5 7 8 9 8 8 7 7 7 7 7 6 6 6 6 6 6 6 7 7 7 7 8 8 8 9 10 10 10 9 7 6 5 7 9 10 10 10 10 10
3 3 4 5 5 5 6 8 8 7 7 7 7 7 7 6 6 6 6 5 6 6 7 8 8 7 8 9 9 10 10 9 8 7 5 6 7 9 9 10 10 9 9
1 1 2 3 3 3 5 6 7 7 7 7 7 7 6 6 5 5 5 5 5 5 6 7 7 7 7 8 9 9 9 8 7 6 5 6 7 8 9 9 9 9 9
3 2 2 2 2 2 3 5 5 5 6 6 6 6 6 5 5 4 4 4 4 5 5 6 7 7 7 7 8 8 8 8 7 5 5 7 7 8 8 8 9 9 9
4 3 2 2 2 2 3 4 4 4 5 5 6 6 5 5 5 4 4 4 4 5 5 5 6 6 6 6 6 6 7 7 6 5 6 7 7 8 8 8 8 8 8
4 3 3 3 2 2 3 3 3 3 3 3 4 5 5 4 3 3 3 3 4 4 4 5 5 5 6 6 6 6 6 6 6 5 6 7 7 6 7 7 7 8 8
5 4 3 3 3 3 3 2 3 3 3 4 4 5 5 4 3 3 2 3 3 4 4 3 4 4 4 5 5 5 5 5 6 6 5 6 6 6 6 6 7 7 7
6 5 3 3 4 3 3 2 2 2 3 4 4 5 6 5 4 3 2 2 2 3 4 4 4 3 3 4 4 4 4 5 6 6 6 5 5 5 6 6 6 6 6
6 5 4 4 4 4 4 3 2 2 3 3 3 5 6 6 5 4 2 1 2 3 4 4 4 4 3 3 3 3 4 5 5 5 6 6 6 5 5 5 5 6 5
5 5 5 4 4 4 4 3 2 2 2 2 3 4 5 5 6 4 3 2 2 3 4 3 2 2 2 2 2 2 3 4 4 5 6 6 6 6 6 5 5 5 5
6 5 5 5 5 4 4 3 3 2 2 2 3 4 4 5 5 5 3 3 4 3 2 2 2 2 3 3 2 2 2 2 3 4 5 6 6 6 6 5 6 5 5
5 5 5 5 5 4 3 3 2 2 2 2 2 4 5 5 5 5 3 3 4 2 2 2 3 2 3 3 3 2 2 2 3 3 3 5 6 6 6 6 6 5 5
5 5 6 5 5 5 3 3 2 2 2 2 2 3 5 5 5 5 3 3 3 3 3 3 3 3 2 3 3 2 2 2 2 2 3 3 4 5 5 5 5 5 5
6 6 6 6 6 6 5 3 2 2 2 2 2 2 4 5 5 4 4 3 3 3 4 4 4 2 2 2 2 3 1 1 2 2 1 1 2 3 4 4 4 4 4
6 7 7 7 6 6 5 3 2 2 2 1 1 1 2 4 4 4 4 4 4 4 4 4 5 4 3 1 1 3 3 3 1 1 1 0 0 1 1 1 2 2 2
6 6 6 6 6 6 6 6 5 4 3 3 2 2 2 3 4 4 5 5 4 4 5 5 4 3 5 3 1 0 1 3 3 1 1 1 1 1 1 1 1 1 2
6 6 6 6 6 6 6 7 6 4 3 2 2 2 2 1 2 3 4 4 4 4 5 5 4 3 3 4 4 2 1 1 2 2 2 2 1 2 2 2 2 2 3
4 4 5 6 6 6 6 6 6 5 4 4 3 3 2 1 1 2 3 4 4 4 4 5 5 4 4 4 4 3 3 2 2 2 2 3 2 2 2 2 3 3 3
Wind_Direction
192 189 161 142 133 126 122 118 112 111 110 109 111 109 108 110 111 112 110 109 108 106 107 105 104 104 104 102 99 95 94 90 88 87 83 83 83 85 82 78 76 75 77
169 170 154 143 136 128 123 121 117 115 114 113 111 113 113 112 112 113 113 110 110 109 107 109 107 104 103 102 100 98 95 93 90 88 84 81 84 86 84 83 81 81 78
142 152 150 142 136 131 127 122 122 120 119 117 115 115 117 115 112 109 109 109 109 110 109 108 108 105 104 103 102 101 98 96 92 88 85 79 84 89 88 88 85 84 82
135 139 145 140 137 133 130 127 125 125 121 120 119 118 118 119 118 114 111 110 108 108 110 110 106 106 106 105 105 104 101 100 95 90 83 78 82 92 92 91 89 86 85
123 134 142 142 139 135 131 130 126 124 124 121 119 118 120 119 117 117 114 112 110 106 106 111 104 107 108 109 108 105 103 103 97 91 84 79 83 94 92 89 86 85 82
118 129 142 145 143 138 134 131 126 124 123 123 121 119 117 119 117 112 111 110 110 108 106 107 108 106 109 111 111 107 106 105 99 93 85 80 85 96 95 92 89 87 82
124 120 138 148 146 141 137 135 130 125 124 122 123 122 120 119 120 115 108 108 111 110 109 107 107 107 110 113 113 110 108 106 101 93 84 77 85 95 95 94 91 89 82
114 105 122 144 147 145 141 141 136 130 124 120 119 120 118 117 117 116 115 110 110 112 111 108 105 109 109 111 111 112 111 109 103 95 85 79 86 90 92 93 91 89 85
90 86 87 105 136 143 144 141 136 130 126 121 116 112 114 116 115 119 122 121 115 111 107 104 103 107 106 108 111 110 111 110 106 99 91 85 92 92 89 90 92 90 85
95 92 91 88 96 122 134 144 140 136 131 125 117 107 103 108 113 114 117 124 124 119 115 107 101 106 106 105 108 109 108 105 106 104 98 95 95 94 91 87 88 88 86
120 104 99 99 90 105 130 137 140 137 132 125 116 111 104 97 100 103 111 119 122 121 116 111 104 106 106 103 105 107 103 102 105 101 103 104 103 101 98 93 90 87 85
203 198 146 122 119 125 135 125 121 130 128 124 118 114 106 100 98 101 107 110 108 109 112 111 105 102 100 95 96 102 100 103 101 101 111 113 110 108 104 98 93 89 85
199 201 192 168 152 148 131 123 117 120 126 125 124 120 111 101 94 91 88 80 82 87 88 95 93 91 94 97 92 90 94 98 99 104 116 118 112 108 105 102 96 91 87
194 210 201 182 157 159 135 126 125 122 125 127 137 136 125 109 96 92 88 83 80 85 87 86 90 92 94 98 100 92 87 89 91 94 102 107 109 109 106 103 98 94 88
193 202 202 185 170 157 131 133 127 133 140 149 148 152 147 135 130 112 99 98 95 98 98 96 99 99 98 94 97 97 89 91 92 90 89 92 97 101 104 104 99 93 85
198 200 196 190 178 158 147 149 138 144 154 155 158 163 158 151 143 131 113 108 111 121 118 116 118 116 109 103 93 92 94 94 95 91 86 82 88 97 102 103 98 88 81
198 195 187 185 166 162 156 155 141 149 155 151 164 167 163 161 157 148 137 128 131 137 127 115 114 111 110 105 98 87 92 91 96 92 88 84 77 79 91 95 95 88 79
190 191 186 180 164 169 158 153 145 147 148 152 159 162 164 167 165 151 147 156 147 137 130 134 132 127 119 117 112 96 81 84 88 97 93 86 80 74 77 79 84 82 73
189 186 178 165 165 168 155 143 139 142 153 157 159 158 164 168 167 155 151 154 149 134 130 149 138 140 134 122 111 95 76 76 74 92 91 84 83 81 75 71 71 69 59
182 175 171 162 160 154 139 121 117 119 142 146 161 164 159 160 164 154 145 150 147 144 146 140 132 119 133 134 112 79 56 60 70 76 84 82 81 82 78 70 62 56 49
169 171 173 167 166 156 152 155 162 179 189 185 175 165 161 161 161 152 148 146 149 162 160 143 132 126 112 124 102 71 32 48 65 60 74 81 79 81 80 72 63 53 38
179 181 179 179 174 173 176 171 168 168 182 186 168 153 165 165 165 162 154 161 160 155 149 149 139 136 135 144 134 121 78 4 15 33 45 94 86 82 73 60 64 56 35
188 188 188 186 180 177 169 145 111 99 85 123 175 182 172 168 166 164 165 162 164 166 170 170 163 156 163 180 141 140 150 197 249 314 285 125 122 98 62 58 48 33 19
199 192 185 182 179 176 167 164 162 170 183 203 196 184 163 165 167 171 167 165 167 167 173 180 176 173 165 172 173 63 142 143 156 205 281 271 250 239 241 268 313 323 332
193 188 184 177 177 172 168 170 171 177 183 167 157 156 161 169 167 171 167 165 172 173 176 178 177 176 180 174 168 162 140 98 130 161 224 259 281 252 235 231 242 264 289
177 176 173 172 174 171 170 169 172 173 170 162 165 172 179 194 196 182 171 170 175 180 185 184 182 180 185 176 171 165 171 170 173 169 201 231 250 264 257 237 226 240 268
Height
1513 1515 1517 1519 1520 1522 1523 1524 1526 1527 1528 1529 1530 1531 1532 1533 1534 1535 1535 1536 1537 1538 1539 1540 1540 1541 1542 1542 1543 1543 1544 1545 1545 1546 1546 1547 1547 1548 1548 1549 1549 1550 1550
1513 1514 1516 1518 1520 1521 1523 1524 1526 1527 1528 1529 1530 1531 1532 1533 1533 1535 1535 1536 1537 1538 1539 1540 1541 1541 1542 1543 1543 1544 1544 1545 1546 1546 1547 1547 1548 1549 1549 1550 1550 1551 1551
1512 1514 1516 1518 1519 1521 1523 1524 1525 1526 1528 1529 1530 1531 1531 1532 1533 1534 1535 1536 1537 1538 1539 1540 1541 1542 1542 1543 1544 1544 1545 1546 1546 1547 1548 1548 1549 1549 1550 1551 1551 1551 1552
1512 1514 1516 1517 1519 1521 1522 1523 1525 1526 1527 1528 1529 1530 1531 1532 1533 1534 1535 1536 1537 1538 1539 1540 1541 1542 1542 1543 1544 1545 1545 1546 1547 1548 1548 1549 1550 1550 1551 1551 1552 1552 1552
1512 1513 1515 1517 1518 1520 1521 1523 1524 1525 1526 1527 1529 1530 1531 1531 1532 1534 1535 1536 1537 1538 1539 1540 1541 1542 1543 1543 1544 1545 1546 1547 1548 1548 1549 1550 1550 1551 1551 1552 1552 1553 1553
1511 1513 1514 1516 1517 1519 1520 1522 1523 1524 1525 1527 1528 1529 1530 1531 1532 1533 1534 1535 1536 1538 1539 1539 1540 1541 1542 1543 1544 1545 1546 1547 1548 1549 1549 1550 1551 1551 1552 1552 1553 1553 1553
1511 1512 1514 1515 1516 1518 1519 1521 1522 1523 1524 1526 1527 1528 1529 1530 1531 1532 1534 1535 1536 1537 1538 1539 1540 1541 1542 1543 1544 1545 1546 1547 1548 1549 1550 1550 1551 1551 1552 1552 1553 1553 1553
1510 1511 1513 1514 1516 1517 1518 1519 1521 1522 1523 1525 1526 1527 1528 1529 1530 1532 1533 1534 1535 1536 1537 1539 1540 1541 1542 1543 1544 1545 1546 1547 1548 1549 1550 1550 1551 1551 1552 1552 1553 1553 1553
1509 1510 1512 1513 1514 1515 1517 1518 1519 1521 1522 1523 1524 1526 1527 1528 1529 1530 1532 1533 1534 1535 1537 1538 1539 1540 1541 1542 1544 1545 1546 1547 1548 1549 1549 1550 1551 1551 1552 1552 1552 1552 1552
1508 1509 1510 1511 1512 1514 1515 1516 1518 1519 1521 1522 1523 1524 1526 1527 1528 1529 1531 1532 1533 1535 1536 1537 1538 1539 1540 1542 1543 1544 1545 1546 1547 1548 1549 1550 1550 1551 1551 1552 1552 1552 1552
1506 1507 1508 1509 1511 1512 1513 1514 1516 1517 1519 1520 1521 1523 1524 1526 1527 1528 1529 1531 1532 1533 1535 1536 1537 1538 1540 1541 1542 1544 1545 1546 1547 1548 1549 1549 1550 1550 1551 1551 1551 1551 1552
1503 1505 1506 1507 1508 1510 1511 1512 1514 1515 1517 1518 1520 1521 1522 1524 1525 1527 1528 1529 1531 1532 1533 1535 1536 1537 1539 1540 1541 1543 1544 1545 1546 1547 1548 1549 1549 1550 1550 1551 1551 1551 1551
1500 1502 1503 1505 1506 1507 1508 1510 1511 1513 1515 1516 1518 1519 1521 1522 1523 1525 1526 1528 1529 1530 1532 1533 1535 1536 1537 1539 1540 1542 1543 1544 1545 1546 1547 1548 1549 1549 1549 1550 1550 1550 1550
1497 1499 1500 1502 1503 1505 1505 1507 1509 1511 1512 1514 1516 1517 1519 1520 1521 1523 1524 1526 1527 1529 1530 1532 1533 1535 1536 1537 1539 1540 1541 1542 1544 1545 1546 1547 1548 1548 1549 1549 1549 1549 1550
1494 1496 1497 1499 1501 1502 1503 1504 1506 1508 1510 1512 1513 1515 1516 1518 1519 1521 1522 1524 1525 1527 1528 1530 1531 1533 1534 1536 1537 1539 1540 1541 1542 1543 1544 1546 1546 1547 1548 1548 1548 1548 1548
1491 1493 1494 1495 1497 1499 1500 1501 1504 1506 1508 1509 1511 1512 1514 1515 1517 1518 1520 1522 1523 1525 1526 1528 1529 1531 1532 1534 1535 1537 1538 1540 1541 1542 1543 1544 1545 1546 1546 1547 1547 1547 1547
1488 1489 1491 1493 1494 1496 1498 1499 1501 1503 1505 1507 1508 1509 1511 1513 1514 1516 1518 1519 1521 1523 1524 1526 1527 1529 1530 1532 1533 1535 1536 1538 1539 1540 1541 1542 1543 1544 1545 1545 1545 1545 1545
1484 1486 1488 1489 1491 1493 1495 1497 1499 1501 1503 1504 1506 1507 1508 1510 1512 1513 1515 1517 1518 1520 1522 1523 1525 1526 1527 1529 1531 1532 1534 1536 1537 1538 1539 1540 1541 1542 1543 1543 1543 1543 1544
1481 1483 1484 1486 1488 1490 1492 1494 1496 1498 1500 1502 1503 1504 1505 1507 1509 1511 1512 1514 1516 1517 1519 1520 1522 1524 1525 1527 1528 1530 1532 1533 1535 1536 1537 1538 1539 1540 1540 1541 1541 1541 1541
1478 1479 1481 1483 1485 1487 1489 1491 1493 1495 1497 1498 1500 1501 1503 1504 1506 1508 1509 1511 1513 1515 1516 1518 1519 1521 1523 1524 1526 1527 1529 1531 1532 1534 1534 1536 1537 1537 1538 1539 1539 1539 1539
1474 1476 1478 1480 1482 1483 1485 1487 1489 1491 1493 1495 1497 1499 1500 1502 1503 1505 1506 1508 1510 1512 1513 1515 1517 1518 1520 1521 1523 1524 1526 1528 1529 1531 1532 1533 1534 1535 1536 1536 1536 1536 1537
1469 1472 1474 1476 1478 1480 1482 1484 1486 1488 1490 1492 1494 1495 1497 1499 1500 1502 1503 1505 1507 1509 1511 1512 1514 1515 1516 1519 1520 1521 1523 1526 1526 1528 1529 1530 1531 1532 1533 1533 1533 1533 1534
1465 1468 1470 1472 1474 1477 1479 1481 1483 1485 1487 1489 1490 1492 1494 1496 1497 1499 1500 1502 1504 1506 1507 1509 1510 1512 1513 1515 1517 1519 1520 1520 1522 1524 1525 1527 1528 1529 1529 1530 1530 1530 1530
1461 1464 1466 1468 1471 1473 1475 1477 1479 1481 1483 1485 1487 1489 1490 1492 1494 1496 1497 1499 1501 1502 1504 1505 1507 1509 1510 1512 1514 1515 1517 1517 1519 1520 1522 1523 1524 1525 1526 1527 1527 1527 1527
1458 1460 1462 1464 1467 1469 1472 1474 1476 1479 1481 1483 1484 1485 1487 1489 1491 1492 1494 1496 1497 1499 1501 1502 1503 1505 1507 1509 1510 1512 1513 1514 1515 1516 1517 1519 1520 1521 1522 1523 1523 1524 1524
1454 1457 1459 1461 1463 1466 1468 1471 1473 1475 1477 1479 1480 1482 1484 1486 1487 1489 1490 1492 1494 1495 1497 1498 1500 1502 1504 1506 1507 1509 1510 1511 1511 1513 1513 1514 1515 1516 1518 1518 1519 1520 1520